Back to catalog

STARLINK-3950

AliveCommunicationsVLEO
NORAD 53264·PAYLOAD·🇺🇸 United States

Launched Jul 24, 2022 from Cape Canaveral Space Force Station

Loading…

Next Passes (next 24 hours)

TLE

FreshSource: CelesTrak SupGP

Epoch: Sep 14, 2026, 21:15 UTC

1 53264C 22086Y   26257.88590278  .00053743  00000+0  15884-2 0  2573
2 53264  53.1592  52.3014 0001208  79.6418  57.7388 15.34352322    17

Track STARLINK-3950 in real time with AllMySat

Download on the App Store